User: anonymous   Login
Location: Scultetus-Sternwarte G�rlitz
(51.1356°N, 14.9514°E)
Time: 14:09:42
(UTC+02:00)
Language:

Iridium 3 - Orbit

View from above orbital plane
View from above orbital plane
View from above satellite
View from above satellite

Ground track
Ground track

The orbit data is extracted from the following two-line orbital elements,

1 25431U 98048A   15243.31294817  .00000050  00000-0  10809-4 0  9991
2 25431 086.4019 169.8662 0002275 077.8985 032.6798 14.34213566891607
Epoch (UTC): 31 August 2015 07:30:38
Eccentricity: 0.0002275
inclination: 86.4019°
perigee height: 776 km
apogee height: 779 km
right ascension of ascending node: 169.8662°
argument of perigee: 77.8985°
revolutions per day: 14.34213566
mean anomaly at epoch: 32.6798°
orbit number at epoch: 89160

The dashed part of the orbit path shows where the satellite is in the earth's shadow,  

DLR